{"data":{"norad_id":62446,"intl_designator":"2024-251Q","name":"STARLINK-32726","alt_names":[],"object_type":"PAYLOAD","status":"ACTIVE","operator":null,"country":"US","launch_date":"2024-12-29","launch_site_code":"AFWTR","launch_vehicle":null,"mission":null,"orbit_class":"UNKNOWN","rcs_meters":null,"size_class":null,"mass_kg":null,"dimensions":null,"purposes":["comms"],"wikipedia_slug":null,"has_3d_model":false,"image_url":null,"decayed_at":null,"tle_current":{"epoch":"2026-05-24T22:27:03.179808Z","epoch_age_seconds":70881,"freshness":"FRESH","line1":"1 62446U 24251Q   26144.93545347  .00020780  00000+0  71146-3 0  9991","line2":"2 62446  53.1621 341.0294 0001112  82.9211 277.1916 15.30213721 79311","mean_motion":15.30213721,"eccentricity":0.0001112,"inclination_deg":53.1621,"raan_deg":341.0294,"arg_perigee_deg":82.9211,"mean_anomaly_deg":277.1916,"bstar":0.00071146,"rev_number":7931,"period_min":94.104501890034,"perigee_km":474.41201309821,"apogee_km":475.93618948714,"semimajor_km":6853.3111012927,"source":"CELESTRAK","updated_at":"2026-05-25T13:38:19.659976Z"}}}